Weather in Basco

Philippines     20°27′03″N   121°58′04″E
temp.,
°C
wind,
m/s
gust,
m/s
humid.,
%
clouds,
%
prec.,
mm/h
press.,
hPa
HPBL,
m
17 april, sat
sat1723:00+27e55746 0.0 1014868
02:00+26ese557828 0.1 1012755
05:00+26ese657541 0.1 1013817
08:00+26e44728 0.1 1014808
11:00+26ene447251 0.0 1014735
14:00+26ne557324 0.0 1012817
17:00+27ne677525 0.0 1012954
20:00+26ne9107831 0.6 1014926
18 april, sun
sun1823:00+26ne12138382 3.8 10151009
02:00+25ne151680100 6.5 10131113
05:00+25ne161676100 0.6 10131174
08:00+25ne161676100 0.8 10151230
11:00+25ne15167295 0.1 10141335
14:00+24ne151672100 0.2 10121463
17:00+24ne151672100 0.1 10121489
20:00+24ne141570100 0.4 10141521
19 april, mon
mon1923:00+24ne141467100 0.1 10141389
02:00+24ne131466100 0.1 10121473
05:00+24ne131366100 0.0 10121433
08:00+24ne13146777 0.0 10121434
11:00+24ne131366100 0.0 10121536
14:00+25ne131367100 0.1 10101425
17:00+25ne131466100 0.0 10101541
20:00+25ne14156882 0.1 10121484
20 april, tue
tue2023:00+25ne141564100 0.0 10111555
02:00+25ne13146663 0.0 10101531
05:00+25ne131467100 0.0 10101493
08:00+25ne13146773 0.1 10111522
11:00+25ne13146699 0.0 10111448
14:00+25ne1415676 0.0 10091485
17:00+25ne141568100 0.0 10091420
20:00+25ne151573100 0.1 10111380
21 april, wed
wed2123:00+25ne141578100 0.1 10101139
02:00+25nne141579100 0.4 10081135
05:00+25nne151679100 0.3 10081129
08:00+25nne151680100 0.7 10101104
11:00+26nne151780100 0.3 10091109
14:00+26nne151681100 0.6 10071070
17:00+26nne151783100 0.3 10061056
20:00+26nne151783100 0.7 10071106